metlocid,date_time,avg_par,std_par,min_par,max_par,n_par,avg_swradin,std_swradin,min_swradin,max_swradin,n_swradin,avg_swradout,std_swradout,min_swradout,max_swradout,n_swradout,n_comments
EXEM,11/21/97,,,,,0,433.0705888,147.0034135,120.9,585.7,51,86.50980418,32.342296,21.2,120.4,51,0
EXEM,11/22/97,,,,,0,328.1604155,175.5776509,67.8,594.6,96,65.8583331,38.67171019,12.6,121.8,96,0
EXEM,11/23/97,,,,,0,339.5177086,185.310973,21.1,732,96,67.30312514,40.93534715,3.8,150.1,96,0
EXEM,11/24/97,,,,,0,192.6895833,125.4544347,55.8,587.3,96,37.15520819,26.02143193,10.3,120.1,96,0
EXEM,11/25/97,,,,,0,276.7197918,186.8048478,45.2,620.4,96,53.65937497,38.10390945,8.6,125.2,96,0
EXEM,11/26/97,,,,,0,316.8591556,190.8365078,32.4,583.2,71,61.9929577,39.34147672,5.8,116.6,71,0
EXEM,11/27/97,,,,,0,140.3364584,92.48117047,26.4,342.4,96,26.22291674,17.20151449,4.9,64.2,96,0
EXEM,11/28/97,,,,,0,104.3208336,63.64557444,30.4,284.4,96,19.44687502,11.90215331,5.6,53.1,96,0
EXEM,11/29/97,,,,,0,140.2104174,82.77645079,30.7,325.9,96,36.45208337,21.84132258,5.8,93.2,96,0
EXEM,11/30/97,,,,,0,248.5249992,175.6801866,49.4,775,96,49.37291684,35.21324076,10.5,154.7,96,0
EXEM,12/1/97,,,,,0,335.182291,200.1807776,66.5,642.1,96,65.753125,41.92704682,11.6,128.8,96,0
EXEM,12/2/97,,,,,0,361.3562499,189.7615461,103.1,696,96,70.23125013,40.01915177,18.7,137.6,96,0
EXEM,12/3/97,,,,,0,249.6177083,122.0353553,57.2,616.7,96,46.42291663,23.3636174,10.7,115.2,96,0
EXEM,12/4/97,,,,,0,212.2239578,147.1905476,51.6,632.7,96,41.08645837,29.89860976,9.7,125.6,96,0
EXEM,12/5/97,,,,,0,386.792707,169.3968081,119.4,650.1,96,73.31562509,37.30771431,16.1,128.3,96,0
EXEM,12/6/97,,,,,0,261.2614589,190.8181292,24.3,735,96,49.27708327,39.63910203,4.4,144.1,96,0
EXEM,12/7/97,,,,,0,107.4114582,78.59602702,13.5,346.9,96,22.78333335,15.44815213,2.4,66.5,96,0
EXEM,12/8/97,,,,,0,188.8645828,112.4621298,30.6,436.4,96,57.81979163,38.01231844,7.3,143,96,0
EXEM,12/9/97,,,,,0,365.0406263,194.8429749,92.5,664.9,96,64.88437482,38.26338145,16.2,121.2,96,0
EXEM,12/10/97,,,,,0,307.5062509,217.399656,52.9,772,96,55.52083341,40.78021176,9.4,143,96,0
EXEM,12/11/97,,,,,0,202.1875003,130.8724002,24.8,480.6,96,41.84270861,32.7297639,4.4,141.2,96,0
EXEM,12/12/97,,,,,0,278.6249997,143.9137869,70.5,653,96,48.26875022,27.5774675,12.5,117.9,96,0
EXEM,12/13/97,,,,,0,183.6895836,98.52845979,55.6,441.5,96,33.18854186,18.04967944,9.9,75.4,96,0
EXEM,12/14/97,,,,,0,156.0656248,90.17116341,32.5,537,96,29.27187497,16.37348118,5.4,68,96,0
EXEM,12/15/97,,,,,0,273.6583324,188.5724356,38.6,834,96,51.9187499,27.81162296,14.1,143.2,96,0
EXEM,12/16/97,,,,,0,359.2927091,193.8113722,45,711,96,62.34583319,35.62621692,12.3,124.4,96,0
EXEM,12/17/97,,,,,0,307.6208323,181.2151785,36.5,669.8,96,74.18854159,34.24092936,20.3,162.8,96,0
EXEM,12/18/97,,,,,0,373.6666658,190.5347683,81.6,672.3,96,62.84583349,35.5053531,13.7,115.6,96,0
EXEM,12/19/97,,,,,0,290.3053196,234.2726641,43.4,897,94,52.07083321,43.08910689,7.3,168.8,96,2
EXEM,12/20/97,,,,,0,376.1625005,202.2871114,98,742,96,64.59166684,37.3453772,16.8,128.5,96,0
EXEM,12/21/97,,,,,0,359.3197925,180.7625882,45.6,774,96,62.18854202,32.49698263,7.9,133.3,96,0
EXEM,12/22/97,,,,,0,417.836458,179.9356482,104.5,673.5,96,71.94479187,34.66780954,16.9,118.9,96,0
EXEM,12/23/97,,,,,0,383.7729166,194.5445731,99.9,737,96,66.89583327,36.45623447,15.4,131.9,96,0
EXEM,12/24/97,,,,,0,367.4781265,208.4469447,64.6,720,96,64.32083338,37.97344187,11,127,96,0
EXEM,12/25/97,,,,,0,171.9874999,89.95645742,25.7,426.3,96,28.93854168,15.33482711,4.3,73.1,96,0
EXEM,12/26/97,,,,,0,368.9250002,220.8726117,21.9,725,96,65.4979168,39.92460533,3.8,129,96,0
EXEM,12/27/97,,,,,0,380.8697902,177.2906972,98,710,96,67.38333354,34.70772345,18.3,126.2,96,0
EXEM,12/28/97,,,,,0,245.8093739,146.5310948,66.6,606.2,96,46.03020835,27.72975276,12.4,114.3,96,0
EXEM,12/29/97,,,,,0,270.7093745,137.2420428,54.9,581.7,96,50.1468753,26.35786934,10.1,110.3,96,0
EXEM,12/30/97,,,,,0,181.5083337,131.023781,21.6,590.7,96,32.85416666,26.65935173,3.9,120.4,96,0
EXEM,12/31/97,,,,,0,77.99791647,43.08326574,13,158.3,96,14.17083334,7.771593576,2.2,28.7,96,0
EXEM,1/1/98,,,,,0,151.594792,120.5598853,24.9,417.2,96,43.09687503,38.05031993,4.4,130.8,96,0
EXEM,1/2/98,,,,,0,306.7729155,225.9290872,55.6,709,96,53.55000006,40.12709027,9,126.8,96,0
EXEM,1/3/98,,,,,0,109.5562503,38.45046794,54.7,209.7,96,19.91562496,7.872755468,9.6,38,96,0
EXEM,1/4/98,,,,,0,274.45625,139.4342957,74.2,718,96,48.06666676,23.1462428,17.1,124.9,96,0
EXEM,1/5/98,,,,,0,299.5447903,127.8618738,70.5,625.6,96,51.90937523,24.87788327,10.3,116,96,0
EXEM,1/6/98,,,,,0,389.4062499,190.210406,83.2,705,96,69.30624984,36.76531768,13.3,127.2,96,0
EXEM,1/7/98,,,,,0,320.4802089,153.8892587,60.5,706,96,56.20729164,28.49559979,10.4,127.8,96,0
EXEM,1/8/98,,,,,0,266.6687509,154.8967265,66.9,662.4,96,48.626042,28.82631234,10.3,120,96,0
EXEM,1/9/98,,,,,0,227.8343745,112.5340146,51.9,419.8,96,64.00937472,33.12222017,16,169,96,0
EXEM,1/10/98,,,,,0,239.3968742,140.810317,70.5,533,96,41.34791658,23.88842925,12.1,92.4,96,0
EXEM,1/11/98,,,,,0,369.1177069,186.9048423,45.9,626.8,96,64.62187486,35.46550935,7,111.8,96,0
EXEM,1/12/98,,,,,0,364.2270814,182.9471416,39.6,644.1,96,63.76666671,35.2397614,6.1,115.5,96,0
EXEM,1/13/98,947.3403567,362.0219417,190.2,1292.8,57,358.8635433,187.693761,26.6,619.5,96,63.27812473,36.90068932,4.3,112.8,96,0
EXEM,1/14/98,633.7375003,415.1525587,156.3,1569.8,96,295.8333339,204.1781494,68.7,777,96,52.69062485,37.92486198,11.8,141,96,0
EXEM,1/15/98,648.641664,404.9215936,123.4,1291.1,96,303.6197925,196.7173582,46.3,615.1,96,54.23541682,36.69990974,7.8,112.9,96,0
EXEM,1/16/98,739.6031219,374.76837,153.6,1271.7,96,364.6625001,176.6632611,60.9,611.8,96,65.07187505,35.16031469,10.2,112.8,96,0
EXEM,1/17/98,552.158333,242.3490571,104.9,1101.6,72,257.959723,112.3915554,27.4,528.4,72,44.81111106,23.41981558,4.5,100.3,72,0
EXEM,1/18/98,655.9043968,342.0726645,79.8,1325.2,91,308.2109907,162.6817511,33.7,638.4,91,73.06263722,39.91258668,6.3,201.2,91,0
EXEM,1/19/98,650.7833326,413.6747503,86.9,1263.6,96,312.1499996,202.3510229,22.1,608.6,96,55.37187505,39.29847632,3.7,111.4,96,0
EXEM,1/20/98,493.0458324,378.3006229,61.5,1240.9,96,230.610416,181.5766739,25.5,599.1,96,42.73750001,29.81290869,4.4,104.8,96,0
EXEM,1/21/98,661.7447948,400.0993823,126.4,1315.4,96,313.8291681,192.8973057,48.6,632.7,96,54.59270857,35.61949901,7.1,112.9,96,0
EXEM,1/22/98,529.7062503,349.438868,92,1539,96,247.462499,171.5537913,27.7,766,96,42.98854139,32.0508439,4.4,135.1,96,0
EXEM,1/23/98,678.6354186,385.5694307,92.9,1215,96,328.1875014,187.0794483,33.2,586.2,96,58.49895852,35.69433253,5.2,106.3,96,0
EXEM,1/24/98,553.0145839,325.2586882,82.3,1166.4,96,258.2479171,153.649818,19.1,560.8,96,45.53750018,29.64403998,3.2,103.4,96,0
EXEM,1/25/98,336.7229158,209.167119,45.5,757.2,96,142.7270832,90.20838156,18.6,331.3,96,67.01979194,46.46843349,3.1,185.5,96,0
EXEM,1/26/98,419.2270827,256.8064514,85.9,827.2,96,182.4864571,114.9008559,34.3,369.1,96,68.06874994,50.32282381,12.1,189.3,96,0
EXEM,1/27/98,627.0593724,397.3793602,77.4,1242.5,96,298.4374994,195.2329492,20.1,603.3,96,52.71041656,35.57096833,3.3,104.6,96,0
EXEM,1/28/98,530.7979152,414.273414,79.3,1206.9,96,252.2197915,203.8537978,21.3,594.1,96,45.18854181,37.06491022,3.4,105.4,96,0
EXEM,1/29/98,303.6697905,174.0221643,35.1,619.6,96,124.6802079,70.31864954,13.4,255.9,96,83.04687511,46.70571691,6.3,167.5,96,0
EXEM,1/30/98,600.6531268,391.5744559,77.7,1268.5,96,279.7656246,186.2395204,28.1,609.4,96,191.8989582,143.9962665,18.7,493.7,96,0
EXEM,1/31/98,572.5041668,392.9265965,81,1163.2,96,267.6364584,191.1413978,23.9,552.1,96,111.6416671,86.56022809,11,242.3,96,0
EXEM,2/1/98,450.9114596,275.8724957,79.8,937.3,96,201.5937496,125.6751524,23.8,425.7,96,66.84999989,43.97038206,8.1,143.8,96,0
EXEM,2/2/98,567.5833347,393.0852069,73.8,1166.4,96,270.0812508,189.2780745,31.9,559.7,96,79.35729192,58.3550455,10,176.4,96,0
EXEM,2/3/98,477.4312524,331.8897357,62.6,1292.8,96,222.3156261,161.5053893,16.2,633.5,96,52.74374981,40.64707071,4,160,96,0
EXEM,2/4/98,527.5020845,380.9893416,59.9,1112.6,96,247.91979,185.9703319,14.8,532.8,96,57.02187494,45.02730217,3.3,129.4,96,0
EXEM,2/5/98,296.3854166,212.9454922,45,800,96,127.5239585,94.36455318,14.1,360.6,96,25.92187511,19.12842033,2.7,72.6,96,0
EXEM,2/6/98,429.696875,355.0863309,21.9,1203.7,96,197.0135426,170.3249668,7.4,587.4,96,39.596875,35.00476203,1.3,115.8,96,0
EXEM,2/7/98,445.0635391,354.6810286,42,1181,96,206.2812505,172.4969754,11,573.3,96,39.0552083,33.602277,2,112.2,96,0
EXEM,2/8/98,441.4354159,315.7505934,43.7,1150.2,96,206.4697922,150.6634573,18.6,551.2,96,38.41875007,28.46581455,3.2,103.3,96,0
EXEM,2/9/98,298.0354168,239.9902088,28.5,808.2,96,131.3354171,108.598912,10.1,377.2,96,23.37708317,19.63689583,1.6,68.8,96,0
EXEM,2/10/98,184.2812497,132.2339222,14.5,451.2,96,77.9729162,57.25110921,5.3,194.4,96,14.50104161,10.2709553,0.8,35,96,0
EXEM,2/11/98,257.4645831,209.2076208,30.7,994.3,96,110.8937501,93.66519794,11.7,462.6,96,25.03020837,18.45097143,2.8,88,96,0
EXEM,2/12/98,315.9916664,282.9691183,12.5,968.4,96,140.8479167,134.4143394,3.3,473.3,96,133.7197916,119.8074442,4.1,455.1,96,0
EXEM,2/13/98,427.9395837,361.2758799,26.5,1419.1,96,197.7958343,173.3989696,9.6,703,96,161.2104167,150.853987,8.1,634.2,96,0
EXEM,2/14/98,294.6145845,232.7782504,22.4,832.7,96,123.0989595,100.0981429,7.1,373.7,96,92.11562446,75.27625017,5.4,286.4,96,0
EXEM,2/15/98,313.6656244,268.6843993,12.7,897,96,129.9520838,113.182227,4,386.4,96,99.21145884,87.07783021,2.9,298.5,96,0
EXEM,2/16/98,251.5562513,221.6572855,12.6,778.6,96,98.08229087,88.06395544,3.6,312,96,101.9552079,82.79268318,2.9,272.7,96,0
EXEM,2/17/98,287.6010406,246.1840842,10.6,772.7,96,110.1583334,93.18334677,2.9,293.7,96,157.7927085,146.0247019,3.9,428.3,96,0
EXEM,2/18/98,130.3708323,116.2864677,6.6,387,96,54.33020835,50.13786055,1.8,167,96,133.1500003,122.7487042,2.4,379.4,96,0
EXEM,2/19/98,149.7947921,132.7626579,3.2,378.6,96,68.53958306,60.21598727,0.9,173.3,96,185.8989585,167.8217062,2.6,472.6,96,0
EXEM,2/20/98,179.6562492,155.6590204,4.1,427.4,96,83.52187493,71.90325829,1.3,194.7,96,189.8822922,168.9371746,3.2,445.9,96,0
EXEM,2/21/98,375.145834,326.444011,3.6,876.3,96,183.5468761,158.1108971,1.1,421.8,96,156.2093753,141.55845,2.4,375.7,96,0
EXEM,2/22/98,360.3656276,321.4097424,6.4,865.6,96,174.6500001,152.7360627,2.4,413.4,96,147.8218749,134.7118225,1.8,354.8,96,0
EXEM,2/23/98,315.2239587,282.6072612,4.3,1019,96,144.6520834,131.6720669,1.9,492.4,96,116.1218748,112.3194678,1.2,410.6,96,0
EXEM,2/24/98,195.1437502,176.2487764,3.2,511.3,96,75.53958374,67.94601067,1,202.6,96,62.62499995,54.53113845,0.6,164,96,0
EXEM,2/25/98,327.8614573,311.0474445,1.1,817.1,96,157.8468758,150.4911061,0.4,393.7,96,163.1833342,155.2788222,0.8,412.7,96,0
EXEM,2/26/98,316.6822917,311.8756113,1.1,885.3,96,150.8374998,151.4391793,0.4,428.3,96,126.001042,131.1893875,0.3,377.5,96,0
EXEM,2/27/98,254.1031264,263.3611692,0.7,813.2,96,116.4333329,124.5787058,0.5,389.5,96,94.8125003,106.6448809,0.2,322.1,96,0
EXEM,2/28/98,154.6968748,155.2940298,0.1,435.5,96,60.05416697,61.44551238,0.1,174.1,96,51.81875028,51.31328435,0,148,96,0
EXEM,3/1/98,119.4770834,120.635856,0,377.3,96,49.80937529,51.01718648,0.1,162.5,96,79.48437436,81.66426622,0.1,255.4,96,0
EXEM,3/2/98,196.3406248,201.1500503,0,637.8,96,94.16562527,100.2716037,0.2,322.1,96,95.66562506,106.5488958,0.1,373.8,96,0
EXEM,3/3/98,267.284377,269.4724091,0,791.9,96,127.1072914,130.3777514,0,390.7,96,135.3437499,138.5436502,0,381.1,96,0
EXEM,3/4/98,258.3593752,265.7386725,0,704.7,96,123.8072912,129.2268374,0,337.4,96,133.2708337,138.0622822,0,361.7,96,0
EXEM,3/5/98,92.03582027,134.6365294,0,488.4,67,38.38507417,59.09631042,0,218.4,67,33.44776113,52.06432893,0,197.3,67,0
EXEM,3/6/98,219.2166647,222.7797301,0,678.8,96,99.28645785,104.182621,0,324.9,96,105.5531253,111.9903151,0,354,96,0
EXEM,3/7/98,193.2343754,213.8166215,0,574.8,96,80.2677082,93.02531788,0,252.2,96,111.7531248,135.3955666,0,345.5,96,0
EXEM,3/8/98,230.6041689,255.915989,0,809.5,96,111.0687506,127.194683,0,408.3,96,112.8385426,132.5927798,0,420.9,96,0
EXEM,3/9/98,239.3979161,284.1561547,0,820.8,96,114.4124997,140.0544664,0,420.3,96,120.0854159,143.5674485,0,395.4,96,0
EXEM,3/10/98,101.1354163,108.5057594,0,341,96,42.50833334,45.98262054,0,149.3,96,53.90937471,59.194482,0,189.3,96,0
EXEM,3/11/98,127.1968743,146.5043221,0,431.7,96,54.40624996,63.83884425,0,190.7,96,42.12916662,48.89502371,0,146,96,0
EXEM,3/12/98,177.707292,203.1162052,0,550.8,96,84.1020831,97.44503415,0,265.8,96,79.17291641,92.69897522,0,262.8,96,0
EXEM,3/13/98,180.2979171,207.468929,0,546.1,96,88.05729183,101.7001381,0,265.1,96,80.5552083,95.18154929,0,253.6,96,0
EXEM,3/14/98,177.5885424,210.6840482,0,554.2,96,85.38541656,103.1819578,0,269.2,96,79.66041639,96.00238935,0,249.7,96,0
EXEM,3/15/98,168.1447917,198.7653606,0,520,96,80.97604187,97.93425186,0,251.8,96,76.49062478,91.84579173,0,238.6,96,0
EXEM,3/16/98,150.2645838,180.6493217,0,662.4,96,71.80416671,89.40015671,0,338,96,63.33541641,78.38909936,0,280.5,96,0
EXEM,3/17/98,151.4770834,184.1261108,0,484.2,96,73.22708317,90.82832764,0,234.4,96,68.59895812,84.33279097,0,220.2,96,0
EXEM,3/18/98,145.3031247,178.3239897,0,466.1,96,69.74999986,87.85535472,0,226,96,64.7302085,81.41083757,0,212.3,96,0
EXEM,3/19/98,131.8104158,171.1888929,0,585.6,96,62.80000054,83.48308094,0,295.7,96,53.16145842,72.48109791,0,247.9,96,0
EXEM,3/20/98,126.571875,170.8608417,0,522.8,96,60.57916635,84.33112251,0,260.8,96,51.79687489,74.3106483,0,234.2,96,0
EXEM,3/21/98,71.53437476,90.57199558,0,313.5,96,29.15416691,38.10361516,0,141.7,96,20.94687501,27.34607047,0,101,96,0
EXEM,3/22/98,119.8583342,158.6460646,0,449.2,96,58.58958321,79.34202881,0,228.4,96,52.18020843,71.21997763,0,198.6,96,0
EXEM,3/23/98,53.41562499,69.2013588,0,202.2,96,20.30624989,26.68849832,0,78.7,96,17.28645842,22.32312771,0,63.6,96,0
EXEM,3/24/98,46.79479228,59.46841679,0,174.8,96,18.77708337,24.62018211,0,81.5,96,29.53854166,39.93076472,0,143.7,96,0
EXEM,3/25/98,65.803125,87.62476777,0,232,96,31.840625,42.66432397,0,111,96,58.87291669,80.61925932,0,213.7,96,0
EXEM,3/26/98,97.37499959,136.5863276,0,373.1,96,49.99999994,70.35232544,0,210.1,96,56.5333333,78.40700251,0,203.4,96,0
EXEM,3/27/98,29.54166666,40.5918573,0,117.1,96,11.85312496,16.60841225,0,48.2,96,21.38333347,29.86107034,0,87.2,96,0
EXEM,3/28/98,19.86875011,27.58585208,0,82.9,96,7.887499951,11.24358287,0,34.5,96,21.65000014,30.99823104,0,97.6,96,0
EXEM,3/29/98,27.74062527,44.82310709,0,159.6,96,12.68124995,21.65722087,0,80.2,96,30.50520827,51.08376256,0,195.4,96,0
EXEM,3/30/98,33.65520855,51.04576496,0,162.6,96,17.5760418,27.97901011,0,92,96,35.08750022,53.77448528,0,175.1,96,0
EXEM,3/31/98,19.15312492,27.56600857,0,80.7,96,7.846875063,11.40874979,0,34.2,96,18.3989582,26.58931102,0,78.2,96,0
EXEM,4/1/98,31.73854176,55.90267744,0,191,96,16.06458332,31.38859658,0,112.1,96,28.42916667,52.91991353,0,183.8,96,0
EXEM,4/2/98,25.46979175,45.3717723,0,190.2,96,11.86145835,23.59077608,0,109.3,96,22.61041658,41.78177491,0,179.2,96,0
EXEM,4/3/98,31.55416668,56.66328227,0,187.9,96,18.89270832,37.51098985,0,116.8,96,25.38229203,48.95648829,0,163.6,96,0
EXEM,4/4/98,28.43437501,53.78335845,0,181.8,96,16.8552081,36.05707081,0,114.7,96,22.62916677,46.28006967,0,157.1,96,0
EXEM,4/5/98,23.41041685,44.721672,0,194.6,96,14.19270832,32.10707823,0,132.5,96,20.28124991,42.41484651,0,187.2,96,0
EXEM,4/6/98,15.78437508,25.6097982,0,101.3,96,7.74999992,15.10145318,0,79,96,11.68124991,20.24184972,0,86.2,96,0
EXEM,4/7/98,20.0375001,38.85818308,0,160.1,96,11.7177083,26.83677743,0,117.7,96,16.42500017,34.7791594,0,147,96,0
EXEM,4/8/98,19.0072916,36.97752425,0,145.5,96,12.25104166,28.10456417,0,104.5,96,14.07812499,30.46569148,0,124.5,96,0
EXEM,4/9/98,8.601041691,14.05664859,0,51.9,96,3.299999979,5.59014165,0,23.8,96,6.52083335,10.67239353,0,40.9,96,0
EXEM,4/10/98,9.964583316,17.49498559,0,80.5,96,5.013541715,10.42287604,0,58.2,96,7.812499997,13.74436726,0,67.5,96,0
EXEM,4/11/98,13.21770845,25.29107216,0,107,96,5.975000007,14.79848499,0,59.3,96,9.41770829,23.78228431,0,102.6,96,0
EXEM,4/12/98,15.13124995,25.9471418,0,96.4,96,5.373958364,10.36542079,0,46.4,96,6.446875058,16.02176144,0,72.3,96,0
EXEM,4/13/98,13.50104172,23.6594502,0,88.9,96,4.591666678,9.216274726,0,43,96,5.047916678,12.92630919,0,67,96,0
EXEM,4/14/98,11.07083328,19.44088959,0,70.1,96,3.493750023,6.73777745,0,32.8,96,3.439583316,8.26340659,0,47.6,96,0
EXEM,4/15/98,9.783333281,17.34133878,0,64.6,96,3.074999997,5.796804882,0,30.9,96,3.092708335,7.271664402,0,52.6,96,0
EXEM,4/16/98,8.453124966,15.11294977,0,53,96,2.53645835,4.510878561,0,22.4,96,2.347916671,4.748716785,0,32.8,96,0
EXEM,4/17/98,6.495833312,11.8083459,0,38.3,96,1.782291651,3.109272848,0,9.9,96,1.589583341,2.800694641,0,8.8,96,0
EXEM,4/18/98,6.162499974,11.43555163,0,35.2,96,1.832291666,3.265626241,0,9.8,96,1.629166661,2.912510811,0,8.7,96,0
EXEM,4/19/98,5.076041632,9.65454611,0,30.9,96,1.538541676,2.797117698,0,8.8,96,1.391666655,2.538157892,0,8,96,0
EXEM,4/20/98,4.425000051,8.540923275,0,27.7,96,1.48854168,2.726511967,0,8.3,96,1.360416672,2.499451703,0,7.5,96,0
EXEM,4/21/98,5.335820903,8.239570113,0,23.9,67,1.78805969,2.631655898,0,7.4,67,1.65820896,2.45839005,0,6.9,67,0
EXEM,4/22/98,3.031250052,6.016526711,0,20.2,96,1.041666663,1.996294807,0,6.4,96,0.987499998,1.908664453,0,6.1,96,0
EXEM,4/23/98,1.959374976,3.954519772,0,14.9,96,0.665624999,1.392523497,0,5.9,96,0.704166665,1.484794273,0,6.3,96,0
EXEM,4/24/98,1.736458328,3.705845145,0,12.8,96,0.541666674,1.117578858,0,4.3,96,0.527083336,1.110853559,0,4.2,96,0
EXEM,4/25/98,1.918749992,4.237434957,0,14.9,96,0.641666672,1.456503878,0,5.4,96,0.511458336,1.173467185,0,4.3,96,0
EXEM,4/26/98,1.195833334,2.629825564,0,9.3,96,0.421874999,0.916308741,0,3.5,96,0.303124997,0.676282884,0,2.6,96,0
EXEM,4/27/98,0.981250006,2.17310415,0,7.5,96,0.3,0.638089253,0,2.2,96,0.232291666,0.512063887,0,1.8,96,0
EXEM,4/28/98,0.962500003,2.296461814,0,8.5,96,0.378125001,0.86853817,0,3,96,0.281250004,0.673297083,0,2.4,96,0
EXEM,4/29/98,0.67291667,1.632336347,0,6.4,96,0.328125,0.833976282,0,3.1,96,0.258333328,0.687277858,0,2.6,96,0
EXEM,4/30/98,0.470833345,1.140906104,0,4.3,96,0.239583334,0.641458729,0,2.9,96,0.158333333,0.448545403,0,2.1,96,0
EXEM,5/1/98,0.180208334,0.45805534,0,1.8,96,0.029166667,0.076662855,0,0.3,96,0.020833334,0.059677497,0,0.2,96,0
EXEM,5/2/98,0.231249994,0.600405544,0,2.1,96,0.072916668,0.165102312,0,0.6,96,0.055208334,0.139071957,0,0.6,96,0
EXEM,5/3/98,0.136458336,0.352172151,0,1.1,96,0.066666669,0.172697896,0,0.6,96,0.065625002,0.173404386,0,0.6,96,0
EXEM,5/4/98,0.022916667,0.094567346,0,0.6,96,0.034375001,0.072297814,0,0.2,96,0.025,0.064888569,0,0.2,96,0
EXEM,5/5/98,0.090625002,0.28912869,0,1.2,96,0.047916667,0.12647377,0,0.5,96,0.036458334,0.098536441,0,0.4,96,0
EXEM,5/6/98,0.0375,0.174265374,0,1,96,0.044791667,0.115046712,0,0.5,96,0.01875,0.056777498,0,0.2,96,0
EXEM,5/7/98,0,0,0,0,96,0.001041667,0.010206207,0,0.1,96,0,0,0,0,96,0
EXEM,5/8/98,0,0,0,0,96,0,0,0,0,96,0,0,0,0,96,0
EXEM,5/9/98,0,0,0,0,96,0.013541667,0.037331493,0,0.2,96,0.001041667,0.010206207,0,0.1,96,0
EXEM,5/10/98,0,0,0,0,96,0,0,0,0,96,0,0,0,0,96,0
EXEM,5/11/98,0,0,0,0,96,0,0,0,0,96,0,0,0,0,96,0
EXEM,5/12/98,0,0,0,0,96,0,0,0,0,96,0,0,0,0,96,0
EXEM,5/13/98,0,0,0,0,96,0,0,0,0,96,0,0,0,0,96,0
EXEM,5/14/98,0,0,0,0,96,0,0,0,0,96,0,0,0,0,96,0
EXEM,5/15/98,0,0,0,0,96,0,0,0,0,96,0,0,0,0,96,0
EXEM,5/16/98,0,0,0,0,96,0,0,0,0,96,0,0,0,0,96,0
EXEM,5/17/98,0,0,0,0,96,0.005208333,0.022336148,0,0.1,96,0,0,0,0,96,0
EXEM,5/18/98,0,0,0,0,96,0.001041667,0.010206207,0,0.1,96,0,0,0,0,96,0
EXEM,5/19/98,0,0,0,0,96,0,0,0,0,96,0,0,0,0,96,0
EXEM,5/20/98,0,0,0,0,96,0,0,0,0,96,0,0,0,0,96,0
EXEM,5/21/98,0,0,0,0,96,0,0,0,0,96,0,0,0,0,96,0
EXEM,5/22/98,0,0,0,0,96,0.003125,0.017490599,0,0.1,96,0,0,0,0,96,0
EXEM,5/23/98,0,0,0,0,96,0,0,0,0,96,0,0,0,0,96,0
EXEM,5/24/98,0,0,0,0,96,0,0,0,0,96,0,0,0,0,96,0
EXEM,5/25/98,0,0,0,0,96,0,0,0,0,96,0,0,0,0,96,0
EXEM,5/26/98,0,0,0,0,96,0,0,0,0,96,0,0,0,0,96,0
EXEM,5/27/98,0,0,0,0,96,0.002083333,0.014357589,0,0.1,96,0,0,0,0,96,0
EXEM,5/28/98,0,0,0,0,96,0,0,0,0,96,0,0,0,0,96,0
EXEM,5/29/98,0,0,0,0,96,0,0,0,0,96,0,0,0,0,96,0
EXEM,5/30/98,0,0,0,0,96,0.00625,0.024333214,0,0.1,96,0,0,0,0,96,0
EXEM,5/31/98,0,0,0,0,96,0,0,0,0,96,0,0,0,0,96,0
EXEM,6/1/98,0,0,0,0,96,0,0,0,0,96,0,0,0,0,96,0
EXEM,6/2/98,0,0,0,0,96,0,0,0,0,96,0,0,0,0,96,0
EXEM,6/3/98,0,0,0,0,96,0,0,0,0,96,0,0,0,0,96,0
EXEM,6/4/98,0,0,0,0,96,0,0,0,0,96,0,0,0,0,96,0
EXEM,6/5/98,0,0,0,0,96,0,0,0,0,96,0,0,0,0,96,0
EXEM,6/6/98,0,0,0,0,96,0,0,0,0,96,0,0,0,0,96,0
EXEM,6/7/98,0,0,0,0,96,0,0,0,0,96,0,0,0,0,96,0
EXEM,6/8/98,0,0,0,0,96,0.002083333,0.014357589,0,0.1,96,0,0,0,0,96,0
EXEM,6/9/98,0,0,0,0,96,0.002083333,0.014357589,0,0.1,96,0,0,0,0,96,0
EXEM,6/10/98,0,0,0,0,96,0,0,0,0,96,0,0,0,0,96,0
EXEM,6/11/98,0,0,0,0,96,0,0,0,0,96,0,0,0,0,96,0
EXEM,6/12/98,0,0,0,0,96,0.002083333,0.014357589,0,0.1,96,0,0,0,0,96,0
EXEM,6/13/98,0,0,0,0,96,0.002083333,0.014357589,0,0.1,96,0,0,0,0,96,0
EXEM,6/14/98,0,0,0,0,96,0.001041667,0.010206207,0,0.1,96,0,0,0,0,96,0
EXEM,6/15/98,0,0,0,0,96,0,0,0,0,96,0,0,0,0,96,0
EXEM,6/16/98,0,0,0,0,96,0,0,0,0,96,0,0,0,0,96,0
EXEM,6/17/98,0,0,0,0,96,0,0,0,0,96,0,0,0,0,96,0
EXEM,6/18/98,0,0,0,0,96,0,0,0,0,96,0,0,0,0,96,0
EXEM,6/19/98,0,0,0,0,96,0,0,0,0,96,0,0,0,0,96,0
EXEM,6/20/98,0,0,0,0,96,0,0,0,0,96,0,0,0,0,96,0
EXEM,6/21/98,0,0,0,0,96,0,0,0,0,96,0,0,0,0,96,0
EXEM,6/22/98,0,0,0,0,96,0,0,0,0,96,0,0,0,0,96,0
EXEM,6/23/98,0,0,0,0,96,0,0,0,0,96,0,0,0,0,96,0
EXEM,6/24/98,0,0,0,0,96,0,0,0,0,96,0,0,0,0,96,0
EXEM,6/25/98,0,0,0,0,96,0,0,0,0,96,0,0,0,0,96,0
EXEM,6/26/98,0,0,0,0,96,0,0,0,0,96,0,0,0,0,96,0
EXEM,6/27/98,0,0,0,0,96,0,0,0,0,96,0,0,0,0,96,0
EXEM,6/28/98,0,0,0,0,96,0,0,0,0,96,0,0,0,0,96,0
EXEM,6/29/98,0,0,0,0,96,0,0,0,0,96,0,0,0,0,96,0
EXEM,6/30/98,0,0,0,0,96,0,0,0,0,96,0,0,0,0,96,0
EXEM,7/1/98,0,0,0,0,96,0.001041667,0.010206207,0,0.1,96,0,0,0,0,96,0
EXEM,7/2/98,0,0,0,0,96,0.001041667,0.010206207,0,0.1,96,0,0,0,0,96,0
EXEM,7/3/98,0,0,0,0,96,0,0,0,0,96,0,0,0,0,96,0
EXEM,7/4/98,0,0,0,0,96,0.001041667,0.010206207,0,0.1,96,0,0,0,0,96,0
EXEM,7/5/98,0,0,0,0,96,0,0,0,0,96,0,0,0,0,96,0
EXEM,7/6/98,0,0,0,0,96,0,0,0,0,96,0,0,0,0,96,0
EXEM,7/7/98,0,0,0,0,96,0,0,0,0,96,0,0,0,0,96,0
EXEM,7/8/98,0,0,0,0,96,0,0,0,0,96,0,0,0,0,96,0
EXEM,7/9/98,0,0,0,0,96,0,0,0,0,96,0,0,0,0,96,0
EXEM,7/10/98,0,0,0,0,96,0,0,0,0,96,0,0,0,0,96,0
EXEM,7/11/98,0,0,0,0,96,0.001041667,0.010206207,0,0.1,96,0,0,0,0,96,0
EXEM,7/12/98,0,0,0,0,96,0,0,0,0,96,0,0,0,0,96,0
EXEM,7/13/98,0,0,0,0,96,0,0,0,0,96,0,0,0,0,96,0
EXEM,7/14/98,0,0,0,0,96,0.003125,0.017490599,0,0.1,96,0,0,0,0,96,0
EXEM,7/15/98,0,0,0,0,96,0,0,0,0,96,0,0,0,0,96,0
EXEM,7/16/98,0,0,0,0,96,0,0,0,0,96,0,0,0,0,96,0
EXEM,7/17/98,0,0,0,0,96,0,0,0,0,96,0,0,0,0,96,0
EXEM,7/18/98,0,0,0,0,96,0,0,0,0,96,0,0,0,0,96,0
EXEM,7/19/98,0,0,0,0,96,0,0,0,0,96,0,0,0,0,96,0
EXEM,7/20/98,0,0,0,0,96,0.007291667,0.026136451,0,0.1,96,0.001041667,0.010206207,0,0.1,96,0
EXEM,7/21/98,0,0,0,0,96,0,0,0,0,96,0,0,0,0,96,0
EXEM,7/22/98,0,0,0,0,96,0,0,0,0,96,0,0,0,0,96,0
EXEM,7/23/98,0,0,0,0,96,0,0,0,0,96,0,0,0,0,96,0
EXEM,7/24/98,0,0,0,0,96,0,0,0,0,96,0,0,0,0,96,0
EXEM,7/25/98,0,0,0,0,96,0,0,0,0,96,0,0,0,0,96,0
EXEM,7/26/98,0,0,0,0,96,0,0,0,0,96,0,0,0,0,96,0
EXEM,7/27/98,0,0,0,0,96,0.001041667,0.010206207,0,0.1,96,0,0,0,0,96,0
EXEM,7/28/98,0,0,0,0,96,0,0,0,0,96,0,0,0,0,96,0
EXEM,7/29/98,0,0,0,0,96,0.002083333,0.014357589,0,0.1,96,0,0,0,0,96,0
EXEM,7/30/98,0,0,0,0,96,0,0,0,0,96,0,0,0,0,96,0
EXEM,7/31/98,0,0,0,0,96,0.007291667,0.026136451,0,0.1,96,0,0,0,0,96,0
EXEM,8/1/98,0,0,0,0,96,0.014583334,0.040985663,0,0.2,96,0,0,0,0,96,0
EXEM,8/2/98,0,0,0,0,96,0.039583334,0.098919604,0,0.4,96,0.01875,0.056777498,0,0.2,96,0
EXEM,8/3/98,0,0,0,0,96,0.032291667,0.077452591,0,0.3,96,0.016666667,0.059234889,0,0.3,96,0